Warning: Javascript must be enabled to use all the features on this page!


Page Loading - Please Wait...

Click to hideNews Bulletins

Peak Streamflow for the Nation

USGS 10348000 TRUCKEE RV AT RENO, NV

Washoe County, Nevada
Hydrologic Unit Code 16050102
Latitude  39°31'49", Longitude 119°47'40" NAD27
Drainage area 1,067  square miles
Gage datum 4,444.53 feet above NGVD29
Output formats
Table
Graph
Tab-separated file
peakfq (watstore) format
Reselect output format
Water
Year
Date Gage
Height
(feet)
Stream-
flow
(cfs)
1907 1907-03-18   14,6001,6
1908 1908-04-13   1,6601,6
1909 1909-01-16   8,5401,6
1910 1910-03-19   3,3601,6
1911 1911-04-26   6,0601,6
1912 1912-05-16   1,5701,6
1913 1913-04-27   1,5201,6
1914 1913-12-31 6.20 7,5206
1915 1915-05-13 4.60 3,9001,6
1916 1916-04-11 5.30 5,0201,6
1917 1917-04-26   3,6801,6
1918 1918-04-23   2,0401,6
1919 1919-05-01   4,0601,6
1920 1920-05-20   2,0701,6
1921 1921-03-18   2,2001,6
1925 1925-05-17   1,2001,6
1926 1926-04-06   1,6501,6
1931 1931-03-19   7591,6
1932 1932-05-14   2,5901,6
1933 1933-05-31   1,4801,6
1934 1934-03-29   1,7901,6
1947 1947-02-12 4.586 1,8406
1948 1948-06-09 4.42 1,7006
1949 1949-05-15 4.20 1,5106
1950 1950-05-28 5.45 2,6206
1951 1950-11-21 13.83 19,9006
1952 1952-05-03 9.38 7,9506
1953 1953-06-20 6.52 3,4306
1954 1954-03-09 6.74 3,7006
1955 1955-06-09 4.02 1,0206
1956 1955-12-23 13.63 20,8006
1957 1957-05-19 6.97 4,1006
1958 1958-05-20 8.10 6,0906
1959 1959-02-17 3.89 1,0506
1960 1960-02-08 5.63 2,6206
1961 1961-04-04 3.24 6616
1962 1962-05-06 5.08 2,0606
1963 1963-02-01 13.28 18,4006
1964 1963-11-15 5.22 1,9606
1965 1964-12-23 11.45 11,3006
1966 1965-12-06 5.14 1,9406
1967 1967-05-22 8.89 6,8006
1968 1968-02-24 5.79 2,3306
1969 1969-05-13 8.01 5,4206
1970 1970-01-22 9.25 7,4006
1971 1971-06-27 6.59 3,2306
1972 1972-05-19   1,2806
1973 1973-05-19 4.86 1,8206
1974 1974-01-19 6.54 3,5906
1975 1975-05-15 6.72 3,7506
1976 1975-10-26 4.43 1,4106
1977 1977-02-21 3.21 6006
1978 1978-05-22 6.04 3,0506
1979 1979-05-15 5.40 2,3206
1980 1980-01-14 9.79 8,6306
1981 1981-05-19 5.36 2,2806
1982 1981-12-20 10.00 8,6906
1983 1983-03-13 9.28 7,2306
1984 1983-11-24 8.90 6,9206
1985 1985-05-03 5.36 1,8506
1986 1986-02-17 12.58 14,4006
1987 1987-05-17 5.55 1,8606
1988 1988-04-14 4.122 5406
1989 1989-03-11 5.74 1,9906
1990 1990-04-23 4.85 1,1306
1991 1991-03-04 6.15 2,5106
1992 1992-02-22 4.01 4886
1993 1993-05-24 6.01 2,2906
1994 1994-05-12 5.42 1,6406
1995 1995-03-10 8.86 6,3906
1996 1996-05-18 9.48 7,4606
1997 1997-01-02 14.94 18,2006
1998 1998-03-24 8.41 5,5406
1999 1999-05-27 7.60 4,4106
2000 2000-02-14 6.816 1,8106
2001 2001-05-16 5.11 6056
2002 2002-04-15 6.47 1,5006
2003 2003-05-30 6.36 1,5006
2004 2004-03-24 5.94 1,1906
2005 2005-05-19 8.49 4,1406
2006 2005-12-31 13.38 16,4006
2007 2007-02-11 5.74 9296
2008 2008-05-19 6.14 1,1906
2009 2009-05-05 7.00 2,0906
2010 2010-06-07 7.49 2,6306
2011 2011-05-08 8.07 3,4206
2012 2012-04-26 7.09 2,1706
2013 2012-12-02 8.46 4,0306
2014 2014-02-09 6.31 1,4306
2015 2015-02-09 6.98 2,0606
2016 2016-01-30 8.00 3,3206
2017 2017-01-09 12.45 12,8006
2018 2018-04-07 10.24 6,6906
2019 2019-04-09 9.34 5,1606
2020 2020-05-18 6.82 1,9106
?
  Peak Gage-Height Qualification Codes.
?
  Peak Streamflow Qualification Codes.